User: anonymous   Login
Location: Glums�
(55.3568°N, 11.6856°E)
Time: 03:27:25
(UTC+00:00)
Language:

Cosmos 2084 Rocket - Orbit

View from above orbital plane
View from above orbital plane
View from above satellite
View from above satellite

Ground track
Ground track

The orbit data is extracted from the following two-line orbital elements,

1 20666U 90055D   20221.63700418 -.00000076 +00000-0 +10968-4 0  9997
2 20666 062.7853 270.2587 0052289 352.2551 007.7729 14.92351395633087
Epoch (UTC): 08 August 2020 15:17:17
Eccentricity: 0.0052289
inclination: 62.7853°
perigee height: 554 km
apogee height: 627 km
right ascension of ascending node: 270.2587°
argument of perigee: 352.2551°
revolutions per day: 14.92351395
mean anomaly at epoch: 7.7729°
orbit number at epoch: 63308

The dashed part of the orbit path shows where the satellite is in the earth's shadow,  

DLR